{"data":{"norad_id":68270,"epoch":"2026-09-19T22:34:01.293600Z","epoch_age_seconds":100450,"freshness":"FRESH","line1":"1 68270U 26055J   26262.94029275  .00015262  00000+0  46176-3 0  9999","line2":"2 68270  53.1558 134.0140 0001705  95.6744 264.4453 15.34410283 29711","mean_motion":15.34410283,"eccentricity":0.0001705,"inclination_deg":53.1558,"raan_deg":134.014,"arg_perigee_deg":95.6744,"mean_anomaly_deg":264.4453,"bstar":0.00046176,"rev_number":2971,"period_min":93.847129151441,"perigee_km":461.50631908479,"apogee_km":463.8390351847,"semimajor_km":6840.8096771347,"source":"CELESTRAK","updated_at":"2026-09-20T09:00:43.847433Z"}}